Lawrenceville, IL

7:24 PM CDT on April 29, 2017 (GMT -0500)
Lawrenceville-Vincennes International

Weather History for KLWV - October, 2011

Change the Weather History Date:

Saturday, October 22, 2011

  Actual Average Record
Temperature  
Mean Temperature 52 °F 56 °F  
Max Temperature 69 °F 67 °F 84 °F (2015)
Min Temperature 34 °F 44 °F 28 °F (1997)
Degree Days  
Heating Degree Days 13 10  
Month to date heating degree days 140 156  
Since 1 July heating degree days 191 195  
Cooling Degree Days 0 0  
Month to date cooling degree days 19 31  
Year to date cooling degree days 1650 1385  
Growing Degree Days 2 (Base 50)    
Moisture  
Dew Point 35 °F    
Average Humidity 60    
Maximum Humidity 92    
Minimum Humidity 28    
Precipitation  
Precipitation 0.00 in 0.13 in 0.77 in (2007)
Month to date precipitation 2.92 3.00  
Year to date precipitation 41.00 35.54  
Sea Level Pressure  
Sea Level Pressure 30.12 in    
Wind  
Wind Speed 3 mph (South)    
Max Wind Speed 12 mph    
Max Gust Speed 20 mph    
Visibility 9 miles    
Events      
T = Trace of Precipitation, MM = Missing Value Source: NWS Daily Summary

Daily Weather History Graph

Daily Weather History Graph

Search for Another Location

Airport or City:

Trip Planner

Search our weather history database for the weather conditions in past years. The results will help you decide how hot, cold, wet, or windy it might be!

Date:

Astronomy

Oct. 22, 2011 Rise Set
Actual Time 7:06 AM CDT 6:02 PM CDT
Civil Twilight 6:39 AM CDT 6:29 PM CDT
Nautical Twilight 6:08 AM CDT 7:00 PM CDT
Astronomical Twilight 5:37 AM CDT 7:31 PM CDT
Moon 2:06 AM CDT (10/22) 3:17 PM CDT (10/22)
Length of Visible Light 11h 50m
Length of Day
10h 56m
Waning Crescent, 23% of the Moon is Illuminated
Oct 22
Waning Crescent
Oct 26
New
Nov 2
First Quarter
Nov 10
Full
Nov 18
Last Quarter

Hourly Weather History & Observations

Time (CDT) Temp. Windchill Dew Point Humidity Pressure Visibility Wind Dir Wind Speed Gust Speed Precip Events Conditions
12:53 AM 39.0 °F 36.8 °F 34.0 °F 82% 30.14 in 10.0 mi SW 3.5 mph - N/A   Clear
1:53 AM 37.9 °F - 34.0 °F 86% 30.14 in 6.0 mi Calm Calm - N/A   Clear
2:53 AM 36.0 °F - 32.0 °F 86% 30.14 in 9.0 mi Calm Calm - N/A   Clear
3:53 AM 36.0 °F - 30.9 °F 82% 30.15 in 9.0 mi Calm Calm - N/A   Clear
4:53 AM 37.0 °F - 32.0 °F 82% 30.16 in 9.0 mi Calm Calm - N/A   Clear
5:53 AM 34.0 °F - 30.0 °F 85% 30.16 in 7.0 mi Calm Calm - N/A   Clear
7:32 AM 35.6 °F - 30.2 °F 81% 30.17 in 1.5 mi Calm Calm - N/A   Clear
7:48 AM 35.6 °F - 33.8 °F 93% 30.17 in 3.0 mi Calm Calm - N/A   Clear
7:53 AM 36.0 °F - 34.0 °F 93% 30.18 in 5.0 mi Calm Calm - N/A   Clear
8:53 AM 44.1 °F - 39.0 °F 82% 30.18 in 10.0 mi Calm Calm - N/A   Clear
9:53 AM 52.0 °F - 39.9 °F 63% 30.18 in 10.0 mi South 3.5 mph - N/A   Clear
10:53 AM 59.0 °F - 37.0 °F 44% 30.16 in 10.0 mi SSW 5.8 mph - N/A   Clear
11:53 AM 63.0 °F - 34.0 °F 34% 30.15 in 10.0 mi SSW 9.2 mph - N/A   Clear
12:53 PM 64.9 °F - 33.1 °F 31% 30.12 in 10.0 mi SSW 8.1 mph - N/A   Clear
1:53 PM 66.9 °F - 34.0 °F 30% 30.10 in 10.0 mi SSW 9.2 mph - N/A   Clear
2:53 PM 66.9 °F - 34.0 °F 30% 30.09 in 10.0 mi Variable 3.5 mph - N/A   Clear
3:53 PM 69.1 °F - 36.0 °F 30% 30.08 in 10.0 mi SSW 5.8 mph - N/A   Clear
4:53 PM 68.0 °F - 37.0 °F 32% 30.07 in 10.0 mi SSW 5.8 mph - N/A   Clear
5:53 PM 60.1 °F - 39.0 °F 46% 30.07 in 10.0 mi South 5.8 mph - N/A   Clear
6:53 PM 54.0 °F - 39.0 °F 57% 30.08 in 10.0 mi SSE 4.6 mph - N/A   Clear
7:53 PM 50.0 °F - 41.0 °F 71% 30.08 in 10.0 mi SSE 6.9 mph - N/A   Clear
8:53 PM 51.1 °F - 39.9 °F 66% 30.08 in 10.0 mi Calm Calm - N/A   Clear
10:53 PM 48.0 °F - 39.9 °F 74% 30.06 in 10.0 mi Calm Calm - N/A   Clear
11:53 PM 48.9 °F - 37.9 °F 66% 30.04 in 10.0 mi Calm Calm - N/A   Clear